ATLAS 5 CENTAUR DEB, 46608

Orbit data source: Space-Track

ATLAS 5 CENTAUR DEB, 46608 is space debris in HEO originally from a launch on Wed, 17 Oct 2018 UTC launched from the Air Force Eastern Test Range (AFETR). Debris objects in space refer to the collection of defunct objects orbiting the Earth. Examples of debris include non-operational satellites, rocket bodies, and fragments generated from explosions, collisions, or faulty payload assembly.

Loading next visibility...
Identifier
46608, 2018-079CG
Orbit
HEO
Country
Flag of USUS
Related business
Flag of USUnited Launch Alliance/Lockheed Martin (US)
Manufacturer
ULA Decatur
Mission
Spacecraft
Bus & Motor
Unknown
Mass
Unknown
Launch date (UTC)
2018-10-17 (8 years ago)
Launch vehicle
Unknown
Launch site
Air Force Eastern Test Range (AFETR)
Object type
Payload
Rocket body
Debris
Shape & HBR
Unknown shape, 1.1 m
Radar Cross Section
Medium (>0.1 m² and <1 m²)

Expand to show TLE details & history
Last TLE update: 2 weeks ago

TLE from 2 weeks ago
0 ATLAS 5 CENTAUR DEB
1 46608U 18079CG  26209.09826366 -.00000141  00000-0  00000-0 0  9995
2 46608  13.5506  35.2067 4673232 310.3764  17.1517  1.79352501 31009
Epoch: 2026-07-28T02:21Z
TLE epoch observation values (Epoch: 2026-07-28T02:21:29.980Z)
Latitude
Longitude
54.10363°
Altitude
10,805.056 km
Speed
5.698 km/s
True Right ascension
02h 21m 00s
True Declination
0° 00' 00"
Sunlit
Object was in daylight at epoch
Visualization orbit readout
Latitude
Unknown
Longitude
Unknown
Altitude
Unknown
Speed
Unknown
Apparent Right ascension
Unknown
Apparent Declination
Unknown
Sunlit
N/A
Visualization observer readout
Local Sidereal Time
16:18:54
Azimuth
Unknown
Elevation
Unknown
Doppler factor
Unknown
Orbital elements
Apogee altitude
35,612.644 km
Perigee altitude
8,865.618 km
Semi-major axis
28,617.268 km
Eccentricity
0.46732
Inclination
13.5506°
RAAN
35.2067°
Arg. of periapsis
310.3764°
True anomaly
49.28869°
Mean anomaly
17.1517°
Eccentric anomaly
30.9035°
Mean motion
0.44833 °/min
Orbital period
802.97 mins
BSTAR
0
Loading maneuver chart data...
Computing Atmospheric mass density...

Documentation

Showing up to 5 results
|